Regional Weather Roundup
Issued by NWS

Home | Current Version | Previous Version | Graphics & Text | Print | Product List | Glossary On
Versions: 1 2 3 4 5 6 7 8 9 10 11 12 13 14 15 16 17 18 19 20 21 22 23 24 25 26 27 28 29 30 31 32 33 34 35 36 37 38 39 40 41 42 43 44 45 46 47 48 49 50
000
ASUS45 KCYS 262210
RWRWY

WYOMING REGIONAL WEATHER ROUNDUP
NATIONAL WEATHER SERVICE CHEYENNE WY
300 PM MST FRI DEC 26 2014

NOTE:  "FAIR" INDICATES FEW OR NO CLOUDS BELOW 12,000 FEET
WITH NO SIGNIFICANT WEATHER AND/OR OBSTRUCTIONS TO VISIBILITY.

WYZ001-262300-
YELLOWSTONE NATIONAL PARK

CITY           SKY/WX    TMP DP  RH WIND       PRES   REMARKS
LK YELLOWSTONE   N/A     14   3  61 VRB3      29.92R
W YELLOWSTONE  NOT AVBL

$$
WYZ002>013-054>058-071-098>099-262300-
NORTHERN WYOMING

CITY           SKY/WX    TMP DP  RH WIND       PRES   REMARKS
JACKSON        CLOUDY    16  10  79 CALM      29.94R
CODY           CLOUDY    21  14  73 SW5       29.99R WCI  15
GREYBULL       FAIR      20  15  81 CALM      30.06R
WORLAND        CLOUDY    18  15  88 CALM      30.04R
SHERIDAN       FAIR      17   9  70 CALM      30.03R
BUFFALO        PTSUNNY   20  11  68 CALM      29.99R
GILLETTE       FAIR      18  12  77 CALM      30.01S
HULETT           N/A    N/A N/A N/A MISG        N/A
NEWCASTLE      CLOUDY    19  14  79 W9        30.03R WCI   9

$$
WYZ014>020-022>026-101>103-262300-
CENTRAL WYOMING

CITY           SKY/WX    TMP DP  RH WIND       PRES   REMARKS
BIG PINEY      FAIR      16  10  77 CALM      29.90R
PINEDALE       CLOUDY    14   9  79 CALM      29.91R
DUBOIS         NOT AVBL
LANDER         CLOUDY    19  13  77 CALM      29.96R
RIVERTON       CLOUDY    17  12  80 W6        29.98R WCI   9
CASPER         CLOUDY    16  10  77 NW3       29.97R
DOUGLAS        CLOUDY    18  12  77 NW7       29.99R WCI   9

$$
WYZ021-027>030-104>119-262300-
SOUTHERN WYOMING

CITY           SKY/WX    TMP DP  RH WIND       PRES   REMARKS
EVANSTON       LGT SNOW  18  13  80 N5        29.91R WCI  11
FORT BRIDGER   MOCLDY    20  12  71 SE6       29.93R WCI  12
ROCK SPRINGS   CLOUDY    16   9  74 NE16      29.91R WCI   1
DIXON          LGT SNOW  20  15  78 SW6       29.85R WCI  13
RAWLINS        LGT SNOW  13   7  77 NE12      29.87R WCI  -1
SARATOGA       LGT SNOW  16  10  79 NW7       29.84R WCI   6
LARAMIE        PTSUNNY    9   4  80 N9        29.81R WCI  -4
CHEYENNE       CLOUDY    14   7  73 N8        29.88R WCI   3
TORRINGTON     CLOUDY    19  15  84 CALM      30.01R FOG
PINE BLUFFS    LGT SNOW  16  12  86 N8        29.95R WCI   5

$$



USA.gov is the U.S. government's official web portal to all federal, state and local government web resources and services.